Overview Statistics Trail Chart Weather Telemetry Raw packets
 

This is the latest recevied weather packets stored in our database for station/object K5KVN. If no packets are shown the sender has not sent any weather packets the latest 10 day(s).

<< 14 15 16 17 18 19 20 >>
Time Temp. Humidity Pressure Rain* Wind** Luminosity Snow
1788459979 35.56° C 47% 1015.5 hPa 0 mm - - -
1788459391 35.56° C 47% 1015.6 hPa 0 mm - - -
1788458779 35° C 48% 1015.7 hPa 0 mm - - -
1788458178 35.56° C 48% 1015.9 hPa 0 mm - - -
1788457577 34.44° C 50% 1016.1 hPa 0 mm - - -
1788456977 34.44° C 50% 1016.3 hPa 0 mm - - -
1788456436 34.44° C 51% 1016.4 hPa 0 mm - - -
1788455777 34.44° C 51% 1016.5 hPa 0 mm - - -
1788455177 34.44° C 53% 1016.6 hPa 0 mm - - -
1788454577 33.89° C 52% 1016.8 hPa 0 mm - - -
1788453977 33.33° C 55% 1016.9 hPa 0 mm - - -
1788453376 32.78° C 55% 1017 hPa 0 mm - - -
1788452778 32.78° C 55% 1017 hPa 0 mm - - -
1788452176 32.78° C 57% 1016.9 hPa 0 mm - - -
1788451577 32.22° C 57% 1017 hPa 0 mm - - -
1788450977 32.22° C 57% 1017.1 hPa 0 mm - - -
1788450378 31.67° C 58% 1017.1 hPa 0 mm - - -
1788449775 31.11° C 60% 1017.1 hPa 0 mm - - -
1788449176 31.11° C 60% 1017.1 hPa 0 mm - - -
1788448576 30.56° C 62% 1017.2 hPa 0 mm - - -
1788448034 30° C 63% 1017.3 hPa 0 mm - - -
1788447375 29.44° C 66% 1017.4 hPa 0 mm - - -
1788446775 28.89° C 68% 1017.4 hPa 0 mm - - -
1788446175 28.33° C 69% 1017.7 hPa 0 mm - - -
1788445574 28.33° C 70% 1017.8 hPa 0 mm - - -

* Rain latest hour (hover to see other rain measurements)
** Current wind speed in m/s (hover to see current wind gust speed)